FW3233 Weather Reports


Display with metric or nautical units.
time (UTC)temp
F
wind
direction
speed
MPH
gust
MPH
rain 1hr
in
rain 24hr
in
rain mn
in
humidity
%
barometer
mb
20260505183633 68 184 1.0 2.0 0.00 0.64 0.64 99 1006.8
20260505183131 67 175 3.0 4.0 0.00 0.64 0.64 99 1007.0
20260505182627 67 150 1.0 3.0 0.00 0.64 0.64 99 1007.0
20260505182124 67 206 0.0 4.0 0.00 0.64 0.64 99 1007.0
20260505181620 67 185 1.0 1.0 0.00 0.64 0.64 99 1007.0
20260505181118 67 172 2.0 3.0 0.00 0.64 0.64 99 1006.9
20260505180614 66 192 2.0 3.0 0.00 0.64 0.64 99 1007.0
20260505180112 66 133 2.0 3.0 0.00 0.64 0.64 99 1007.4
20260505175607 66 189 0.0 4.0 0.00 0.64 0.64 99 1007.3
20260505175104 66 172 3.0 7.0 0.00 0.64 0.64 99 1007.3
20260505174601 66 198 0.0 3.0 0.00 0.64 0.64 99 1007.5
20260505174056 66 205 2.0 3.0 0.00 0.64 0.64 99 1007.6
20260505173553 66 210 1.0 4.0 0.00 0.64 0.64 99 1007.5
20260505173050 66 202 4.0 6.0 0.00 0.64 0.64 99 1007.4
20260505172548 66 191 1.0 4.0 0.00 0.64 0.64 99 1007.6
20260505172044 66 177 1.0 4.0 0.00 0.64 0.64 99 1007.5
20260505171539 66 205 2.0 6.0 0.00 0.64 0.64 99 1007.8
20260505171036 66 178 0.0 2.0 0.00 0.64 0.64 99 1007.7
20260505170533 65 198 3.0 4.0 0.00 0.64 0.64 99 1008.0
20260505170030 65 155 2.0 2.0 0.00 0.64 0.64 99 1007.8
20260505165525 65 194 2.0 3.0 0.00 0.64 0.64 99 1007.8
20260505165021 65 202 2.0 3.0 0.00 0.64 0.64 99 1007.9
20260505164517 65 181 0.0 6.0 0.00 0.64 0.64 99 1007.9
20260505164015 65 176 1.0 2.0 0.00 0.64 0.64 99 1008.1
20260505163513 64 181 0.0 1.0 0.00 0.64 0.64 99 1008.0
20260505163009 64 195 0.0 2.0 0.00 0.64 0.64 99 1008.0
20260505162457 64 191 1.0 3.0 0.00 0.64 0.64 99 1008.0
20260505161953 64 199 1.0 1.0 0.00 0.64 0.64 99 1008.1
20260505161445 64 200 0.0 1.0 0.00 0.64 0.64 99 1008.4
20260505160942 64 197 0.0 2.0 0.00 0.64 0.64 99 1008.3
20260505160440 64 177 0.0 2.0 0.00 0.64 0.64 99 1008.3
20260505152916 64 199 1.0 2.0 0.00 0.64 0.64 99 1008.1
20260505152414 64 188 0.0 3.0 0.00 0.64 0.64 99 1008.2
20260505151913 63 183 0.0 3.0 0.00 0.64 0.64 99 1008.0
20260505151410 64 180 1.0 3.0 0.00 0.64 0.64 99 1008.3
20260505150907 63 186 0.0 2.0 0.00 0.64 0.64 99 1008.2
20260505150404 63 164 2.0 4.0 0.00 0.64 0.64 99 1008.1
20260505140323 63 110 0.0 0.0 0.00 0.64 0.64 99 1008.7
20260505130246 62 189 1.0 1.0 0.14 0.51 0.51 99 1008.6
20260505124737 62 68 1.0 1.0 0.19 0.46 0.46 99 1008.4
20260505124234 62 165 0.0 1.0 0.59 0.45 0.45 99 1008.4
20260505123729 62 186 0.0 1.0 0.97 0.42 0.42 99 1008.4
20260505123226 62 200 0.0 0.0 1.02 0.35 0.35 99 1008.8
20260505122722 62 164 1.0 3.0 0.54 0.26 0.26 99 1008.4
20260505122219 62 36 1.0 2.0 0.12 0.18 0.18 99 1008.6
20260505121711 62 338 1.0 2.0 0.05 0.17 0.17 99 1008.3
20260505121207 62 141 0.0 0.0 0.07 0.16 0.16 99 1008.2
20260505120704 62 141 0.0 0.0 0.07 0.16 0.16 99 1008.1
20260505120159 62 140 0.0 0.0 0.00 0.15 0.15 99 1008.1
20260505115653 62 139 0.0 0.0 0.00 0.15 0.15 99 1007.8
20260505115151 62 140 0.0 0.0 0.12 0.15 0.15 99 1007.9
20260505114648 62 139 0.0 0.0 0.42 0.15 0.15 99 1008.1
20260505114144 62 133 0.0 0.0 0.42 0.13 0.13 99 1008.3
20260505113641 62 217 0.0 0.0 0.07 0.07 0.07 99 1008.5
20260505113137 62 205 0.0 1.0 0.05 0.06 0.06 99 1007.8
20260505112634 62 196 0.0 2.0 0.05 0.06 0.06 99 1007.4
20260505112132 62 167 0.0 0.0 0.00 0.05 0.05 99 1006.9
20260505111631 62 171 1.0 3.0 0.07 0.05 0.05 98 1007.3
20260505111127 62 190 1.0 2.0 0.07 0.05 0.05 98 1006.9
20260505110624 62 190 0.0 0.0 0.05 0.04 0.04 97 1007.0
20260505110121 62 189 0.0 0.0 0.17 0.04 0.04 96 1007.1
20260505102057 66 194 2.0 3.0 0.00 0.00 0.00 82 1007.0
20260505101555 66 154 1.0 2.0 0.00 0.00 0.00 81 1007.2
20260505101051 66 179 0.0 3.0 0.00 0.00 0.00 81 1007.2
20260505100548 66 209 2.0 4.0 0.00 0.00 0.00 81 1007.3
20260505100045 66 184 1.0 2.0 0.00 0.00 0.00 81 1007.1
20260505095541 66 188 2.0 4.0 0.00 0.00 0.00 81 1007.4
20260505095037 66 175 1.0 2.0 0.00 0.00 0.00 81 1007.3
20260505094534 66 173 0.0 4.0 0.00 0.00 0.00 80 1007.2
20260505094030 66 196 1.0 3.0 0.00 0.00 0.00 80 1007.2
20260505093527 66 199 1.0 3.0 0.00 0.00 0.00 80 1007.1
20260505093024 66 167 1.0 2.0 0.00 0.00 0.00 80 1007.0
20260505092522 66 190 1.0 2.0 0.00 0.00 0.00 80 1007.1
20260505092020 66 175 1.0 3.0 0.00 0.00 0.00 79 1007.2
20260505091516 66 183 1.0 2.0 0.00 0.00 0.00 79 1006.9
20260505091014 66 184 1.0 2.0 0.00 0.00 0.00 79 1007.0
20260505090512 66 151 1.0 3.0 0.00 0.00 0.00 79 1007.1
20260505090010 66 189 0.0 1.0 0.00 0.00 0.00 79 1007.2
20260505085508 66 175 0.0 1.0 0.00 0.00 0.00 79 1007.0
20260505085006 65 176 1.0 2.0 0.00 0.00 0.00 79 1007.3
20260505084504 65 174 0.0 2.0 0.00 0.00 0.00 79 1007.2
20260505084001 65 159 1.0 3.0 0.00 0.00 0.00 78 1007.3
20260505083458 65 202 1.0 3.0 0.00 0.00 0.00 78 1007.2
20260505082954 65 208 0.0 1.0 0.00 0.00 0.00 78 1007.3
20260505082450 65 185 1.0 2.0 0.00 0.00 0.00 78 1007.2
20260505081947 65 190 1.0 3.0 0.00 0.00 0.00 77 1007.4
20260505081444 65 173 2.0 3.0 0.00 0.00 0.00 77 1007.4
20260505080941 65 183 2.0 3.0 0.00 0.00 0.00 77 1007.8
20260505080437 65 187 2.0 2.0 0.00 0.00 0.00 77 1007.6
20260505075932 65 187 1.0 1.0 0.00 0.00 0.00 77 1007.7
20260505075429 65 186 1.0 3.0 0.00 0.00 0.00 77 1007.7
20260505074927 65 188 0.0 2.0 0.00 0.00 0.00 76 1007.9
20260505074424 65 158 1.0 3.0 0.00 0.00 0.00 76 1008.0
20260505073921 65 215 1.0 2.0 0.00 0.00 0.00 76 1008.0
20260505073419 65 184 1.0 3.0 0.00 0.00 0.00 75 1007.9
20260505072916 65 193 0.0 2.0 0.00 0.00 0.00 75 1007.9
20260505072412 65 196 0.0 2.0 0.00 0.00 0.00 75 1008.0
20260505071908 65 197 0.0 2.0 0.00 0.00 0.00 75 1008.0
20260505071404 65 195 0.0 2.0 0.00 0.00 0.00 75 1008.1
20260505070903 65 186 1.0 2.0 0.00 0.00 0.00 75 1008.1
20260505070358 65 180 0.0 2.0 0.00 0.00 0.00 75 1008.2
20260505065854 65 181 0.0 3.0 0.00 0.00 0.00 75 1008.1
20260505065351 64 194 0.0 2.0 0.00 0.00 0.00 74 1008.2
20260505064848 64 178 1.0 2.0 0.00 0.00 0.00 75 1008.5
20260505064345 64 180 1.0 2.0 0.00 0.00 0.00 75 1008.5
20260505063844 64 194 0.0 3.0 0.00 0.00 0.00 75 1008.5
20260505063339 64 183 0.0 2.0 0.00 0.00 0.00 75 1008.6
20260505062836 64 179 0.0 1.0 0.00 0.00 0.00 76 1008.6
20260505062333 64 182 1.0 1.0 0.00 0.00 0.00 75 1008.7
20260505061830 64 186 0.0 0.0 0.00 0.00 0.00 76 1008.8
20260505061328 64 188 0.0 1.0 0.00 0.00 0.00 76 1009.0
20260505060825 64 182 1.0 1.0 0.00 0.00 0.00 75 1009.0
20260505060322 64 186 0.0 1.0 0.00 0.00 0.00 76 1009.1
20260505055818 63 186 1.0 1.0 0.00 0.00 0.00 76 1009.1
20260505055314 63 188 0.0 0.0 0.00 0.00 0.00 77 1009.2
20260505054812 63 189 0.0 0.0 0.00 0.00 0.00 79 1009.3
20260505054309 63 194 0.0 0.0 0.00 0.00 0.00 79 1009.3
20260505053807 63 194 0.0 0.0 0.00 0.00 0.00 78 1009.3
20260505053303 63 191 0.0 0.0 0.00 0.00 0.00 77 1009.3
20260505052800 63 190 0.0 0.0 0.00 0.00 0.00 77 1009.5
20260505052257 63 190 0.0 0.0 0.00 0.00 0.00 78 1009.5
20260505051754 64 189 0.0 0.0 0.00 0.00 0.00 77 1009.3
20260505051252 64 189 0.0 0.0 0.00 0.00 0.00 77 1009.4
20260505050750 64 189 0.0 0.0 0.00 0.00 0.00 75 1009.4
20260505050248 65 186 0.0 0.0 0.00 0.00 0.00 74 1009.4
20260505041718 63 177 0.0 0.0 0.00 0.00 0.00 78 1009.5
20260505041215 63 177 0.0 0.0 0.00 0.00 0.00 78 1009.4
20260505040712 63 177 0.0 0.0 0.00 0.00 0.00 79 1009.7
20260505040209 63 177 0.0 0.0 0.00 0.00 0.00 79 1009.6
20260505035706 63 177 0.0 0.0 0.00 0.00 0.00 78 1009.5
20260505035202 63 177 0.0 0.0 0.00 0.00 0.00 78 1009.6
20260505034658 63 177 0.0 0.0 0.00 0.00 0.00 78 1009.7
20260505034151 64 177 0.0 0.0 0.00 0.00 0.00 77 1009.7
20260505033646 64 177 0.0 0.0 0.00 0.00 0.00 77 1009.7
20260505033145 64 177 0.0 0.0 0.00 0.00 0.00 76 1009.7
20260505032643 64 177 0.0 0.0 0.00 0.00 0.00 77 1009.6
20260505032139 64 177 0.0 0.0 0.00 0.00 0.00 75 1009.5
20260505031636 64 177 0.0 0.0 0.00 0.00 0.00 75 1009.6
20260505031132 64 177 0.0 0.0 0.00 0.00 0.00 75 1009.6
20260505030629 64 177 0.0 0.0 0.00 0.00 0.00 76 1009.7
20260505030125 64 177 0.0 0.0 0.00 0.00 0.00 75 1009.3
20260505025621 65 177 0.0 0.0 0.00 0.00 0.00 75 1009.3
20260505025120 65 177 0.0 0.0 0.00 0.00 0.00 74 1009.4
20260505024617 65 177 0.0 0.0 0.00 0.00 0.00 74 1009.3
20260505024114 66 177 0.0 0.0 0.00 0.00 0.00 73 1009.2
20260505023611 66 176 0.0 0.0 0.00 0.00 0.00 73 1009.3
20260505023109 66 177 0.0 0.0 0.00 0.00 0.00 72 1009.1
20260505022606 66 177 0.0 0.0 0.00 0.00 0.00 71 1009.2
20260505022103 67 176 0.0 0.0 0.00 0.00 0.00 70 1009.1
20260505021600 68 177 0.0 0.0 0.00 0.00 0.00 69 1009.1
20260505021057 68 177 0.0 0.0 0.00 0.00 0.00 69 1008.8
20260505020556 68 187 0.0 0.0 0.00 0.00 0.00 68 1008.9
20260505020054 68 178 0.0 0.0 0.00 0.00 0.00 69 1008.8
20260505015551 68 178 0.0 0.0 0.00 0.00 0.00 68 1008.8
20260505015047 68 178 0.0 0.0 0.00 0.00 0.00 67 1008.8
20260505014544 69 178 0.0 0.0 0.00 0.00 0.00 67 1008.5
20260505014041 69 178 0.0 0.0 0.00 0.00 0.00 66 1008.6
20260505013538 69 178 0.0 0.0 0.00 0.00 0.00 65 1008.5
20260505013036 70 178 0.0 0.0 0.00 0.00 0.00 64 1008.5
20260505012534 70 178 0.0 0.0 0.00 0.00 0.00 63 1008.4
20260505012030 71 178 0.0 0.0 0.00 0.00 0.00 61 1008.2
20260505011526 72 178 0.0 0.0 0.00 0.00 0.00 59 1008.5
20260505011023 71 182 1.0 1.0 0.00 0.00 0.00 59 1008.1
20260505010518 72 189 0.0 1.0 0.00 0.00 0.00 60 1008.3
20260505010016 72 206 1.0 2.0 0.00 0.00 0.00 60 1008.2
20260505005512 72 177 0.0 0.0 0.00 0.00 0.00 59 1008.2
20260505005010 73 180 0.0 0.0 0.00 0.00 0.00 58 1008.0
20260505004506 73 181 0.0 2.0 0.00 0.00 0.00 57 1008.3
20260505004003 73 196 1.0 1.0 0.00 0.00 0.00 57 1008.0
20260505003500 73 186 0.0 2.0 0.00 0.00 0.00 56 1008.1
20260505002956 73 199 1.0 1.0 0.00 0.00 0.00 56 1008.2
20260505002452 74 209 0.0 1.0 0.00 0.00 0.00 56 1008.3
20260505001951 74 190 1.0 2.0 0.00 0.00 0.00 55 1008.3
20260505001448 75 188 0.0 2.0 0.00 0.00 0.00 55 1008.2
20260505000945 75 188 0.0 2.0 0.00 0.00 0.00 55 1008.3
20260505000443 75 186 2.0 2.0 0.00 0.00 0.00 54 1008.3
20260504235940 75 216 1.0 3.0 0.00 0.00 0.00 53 1008.3
20260504235437 75 184 0.0 2.0 0.00 0.00 0.00 53 1008.5
20260504234933 76 189 1.0 2.0 0.00 0.00 0.00 54 1008.4
20260504234431 76 188 0.0 2.0 0.00 0.00 0.00 53 1008.5
20260504233927 76 185 0.0 2.0 0.00 0.00 0.00 52 1008.3
20260504233423 76 189 1.0 2.0 0.00 0.00 0.00 52 1008.4
20260504232920 76 163 1.0 2.0 0.00 0.00 0.00 52 1008.5
20260504232417 77 196 0.0 2.0 0.00 0.00 0.00 52 1008.6
20260504231914 77 203 1.0 6.0 0.00 0.00 0.00 51 1008.7
20260504231410 77 179 0.0 2.0 0.00 0.00 0.00 51 1008.8
20260504230907 77 177 1.0 1.0 0.00 0.00 0.00 51 1008.8
20260504230404 77 175 0.0 2.0 0.00 0.00 0.00 51 1008.9
20260504225903 77 194 0.0 2.0 0.00 0.00 0.00 50 1009.1
20260504225359 78 162 1.0 2.0 0.00 0.00 0.00 50 1008.9
20260504224857 78 202 0.0 2.0 0.00 0.00 0.00 49 1009.0
20260504224353 78 184 2.0 4.0 0.00 0.00 0.00 47 1008.9
20260504223850 78 170 2.0 6.0 0.00 0.00 0.00 48 1008.9
20260504223345 79 182 4.0 6.0 0.00 0.00 0.00 46 1008.9
20260504222842 79 178 5.0 7.0 0.00 0.00 0.00 47 1008.8
20260504222339 78 188 0.0 4.0 0.00 0.00 0.00 48 1008.9
20260504221837 78 168 2.0 9.0 0.00 0.00 0.00 47 1009.1
20260504221334 78 205 2.0 3.0 0.00 0.00 0.00 48 1009.1
20260504220831 78 197 1.0 3.0 0.00 0.00 0.00 48 1009.0
20260504220327 79 184 3.0 4.0 0.00 0.00 0.00 47 1009.0
20260504215825 79 169 2.0 3.0 0.00 0.00 0.00 47 1009.2
20260504215321 78 150 4.0 6.0 0.00 0.00 0.00 48 1009.4
20260504214817 78 181 0.0 1.0 0.00 0.00 0.00 49 1009.3
20260504214314 78 196 1.0 4.0 0.00 0.00 0.00 48 1009.3
20260504213811 79 162 2.0 4.0 0.00 0.00 0.00 48 1009.3
20260504213307 79 176 2.0 7.0 0.00 0.00 0.00 48 1009.2
20260504212804 79 164 3.0 4.0 0.00 0.00 0.00 47 1009.2
20260504212300 80 188 1.0 2.0 0.00 0.00 0.00 48 1009.5
20260504211758 80 184 0.0 2.0 0.00 0.00 0.00 47 1009.6
20260504211254 79 201 1.0 4.0 0.00 0.00 0.00 47 1009.6
20260504210752 79 203 2.0 3.0 0.00 0.00 0.00 47 1009.5
20260504210249 80 195 6.0 9.0 0.00 0.00 0.00 45 1009.6
20260504205746 80 184 3.0 8.0 0.00 0.00 0.00 45 1009.7
20260504205243 80 216 2.0 3.0 0.00 0.00 0.00 47 1009.5
20260504204741 79 199 2.0 10.0 0.00 0.00 0.00 46 1009.6
20260504204239 80 181 2.0 7.0 0.00 0.00 0.00 46 1009.7
20260504203738 80 179 3.0 7.0 0.00 0.00 0.00 46 1009.8
20260504203235 79 119 2.0 3.0 0.00 0.00 0.00 47 1010.2
20260504202735 79 209 1.0 3.0 0.00 0.00 0.00 48 1010.0
20260504202233 79 226 3.0 10.0 0.00 0.00 0.00 47 1010.0
20260504201730 79 152 5.0 6.0 0.00 0.00 0.00 45 1010.3
20260504201227 79 191 5.0 9.0 0.00 0.00 0.00 44 1010.4
20260504200725 79 220 1.0 2.0 0.00 0.00 0.00 50 1010.3
20260504200220 79 219 1.0 2.0 0.00 0.00 0.00 48 1010.6
20260504195717 80 197 3.0 8.0 0.00 0.00 0.00 45 1010.6
20260504195213 80 167 0.0 2.0 0.00 0.00 0.00 47 1010.8
20260504194710 79 224 6.0 9.0 0.00 0.00 0.00 46 1010.9
20260504194206 79 176 2.0 7.0 0.00 0.00 0.00 48 1011.0
20260504193703 80 197 2.0 7.0 0.00 0.00 0.00 45 1011.0
20260504193200 80 173 2.0 6.0 0.00 0.00 0.00 46 1011.0
20260504192659 80 223 2.0 3.0 0.00 0.00 0.00 46 1011.1
20260504192156 80 232 2.0 6.0 0.00 0.00 0.00 46 1011.0
20260504191655 79 209 0.0 4.0 0.00 0.00 0.00 47 1011.2
20260504191150 79 183 2.0 4.0 0.00 0.00 0.00 45 1011.2
20260504190646 79 187 6.0 9.0 0.00 0.00 0.00 44 1011.3
20260504190143 79 186 2.0 3.0 0.00 0.00 0.00 45 1011.2
20260504185639 79 190 1.0 4.0 0.00 0.00 0.00 47 1011.6
20260504185136 78 200 4.0 10.0 0.00 0.00 0.00 46 1011.2
20260504184632 79 173 4.0 4.0 0.00 0.00 0.00 46 1011.4
20260504184127 79 180 1.0 3.0 0.00 0.00 0.00 48 1011.4